STARLINK-4077, 53154

Orbit data source: Space-Track

STARLINK-4077, 53154 is a payload satellite owned by SpaceX/Seattle (US) in LEO that was launched on Sun, 17 Jul 2022 UTC via an FALCON 9 launch vehicle from the Air Force Eastern Test Range (AFETR). Payload-class satellites include a variety of spacecraft equipped with specific instruments for various scientific and technological missions. These include communications satellites like Starlink; space stations such as the ISS; scientific satellites like the Hubble; Earth observation satellites from companies like Planet Labs, Umbra, and HawkEye 360; GPS; miniature CubeSats for education and research; and military/defense satellites.

Loading next visibility...
Identifier
53154, 2022-083Y
Orbit
LEO
Country
Flag of USUS
Related business
Manufacturer
SpaceX/Seattle
Mission
Operational Commercial Communications
Bus & Motor
STARLINK, Unknown motor
Mass
297 kg wet, ~275 kg dry
Launch date (UTC)
2022-07-17 (4 years ago)
Launch vehicle
FALCON 9
Launch site
Air Force Eastern Test Range (AFETR)
Object type
Payload
Rocket body
Debris
Shape & HBR
Box + 1 Pan, 10.1 m
Radar Cross Section
13.562 m², Large (>1 m²)

Expand to show TLE details & history
Last TLE update: 2 days ago

TLE from 2 days ago
0 STARLINK-4077
1 53154U 22083Y   26171.41025808  .00000559  00000-0  53231-4 0  9995
2 53154  53.1609  62.8760 0001344  87.7506 272.3639 15.08832636216865
Epoch: 2026-06-20T09:50Z
TLE epoch observation values (Epoch: 2026-06-20T09:50:46.298Z)
Latitude
-0.00003°
Longitude
6.55779°
Altitude
540.619 km
Speed
7.593 km/s
True Right ascension
04h 11m 30s
True Declination
0° 00' 00"
Sunlit
Object was in daylight at epoch
Visualization orbit readout
Latitude
Unknown
Longitude
Unknown
Altitude
Unknown
Speed
Unknown
Apparent Right ascension
Unknown
Apparent Declination
Unknown
Sunlit
N/A
Visualization observer readout
Local Sidereal Time
21:25:47
Azimuth
Unknown
Elevation
Unknown
Doppler factor
Unknown
Orbital elements
Apogee altitude
540.95 km
Perigee altitude
539.09 km
Semi-major axis
6,918.157 km
Eccentricity
0.00013
Inclination
53.1609°
RAAN
62.876°
Arg. of periapsis
87.7506°
True anomaly
272.34851°
Mean anomaly
272.3639°
Eccentric anomaly
272.35621°
Mean motion
3.77188 °/min
Orbital period
95.44 mins
BSTAR
0.000053231
Loading maneuver chart data...
Computing Atmospheric mass density...
Loading historical data...
Loading historical data...
Loading historical data...
Loading historical data...
Loading historical data...
Loading historical data...
Loading historical data...

Documentation

Showing up to 5 results
|